User: anonymous   Login
Location: *
(90.0000°N, 180.0000°W)
Time: 23:15:20
(UTC+01:00)
Language:

Cosmos 1825 - Orbit

View from above orbital plane
View from above orbital plane
View from above satellite
View from above satellite

Ground track
Ground track

The orbit data is extracted from the following two-line orbital elements,

1 17566U 87024A   16336.88753041 +.00001192 +00000-0 +56582-4 0  9994
2 17566 082.5039 125.7055 0004140 161.7237 198.4147 15.18295540623617
Epoch (UTC): 01 December 2016 21:18:02
Eccentricity: 0.0004140
inclination: 82.5039°
perigee height: 508 km
apogee height: 514 km
right ascension of ascending node: 125.7055°
argument of perigee: 161.7237°
revolutions per day: 15.18295540
mean anomaly at epoch: 198.4147°
orbit number at epoch: 62361

The dashed part of the orbit path shows where the satellite is in the earth's shadow,  

DLR